Regional Weather Roundup
Issued by NWS

Home | Current Version | Previous Version | Graphics & Text | Print | Product List | Glossary On
Versions: 1 2 3 4 5 6 7 8 9 10 11 12 13 14 15 16 17 18 19 20 21 22 23 24 25 26 27 28 29 30 31 32 33 34 35 36 37 38 39 40 41 42 43 44 45 46 47 48 49 50
000
ASUS43 KDMX 222206
RWRIA

WEATHER ROUNDUP FOR IOWA
NATIONAL WEATHER SERVICE DES MOINES IA
400 PM CST THU FEB 22 2018

NOTE: "FAIR" INDICATES FEW OR NO CLOUDS BELOW 12,000 FEET WITH NO
SIGNIFICANT WEATHER AND/OR OBSTRUCTIONS TO VISIBILITY.

* - THESE STATIONS ARE NOT NWS STATIONS...THUS NOT UNDER NWS
QUALITY CONTROL.  THEY ALSO DO NOT REPORT WEATHER SUCH
AS PRECIPITATION OR FOG.

IAZ001>003-012>014-020>022-031>034-043>046-222300-
   NORTHWEST IOWA

CITY           SKY/WX    TMP DP  RH WIND       PRES   REMARKS
CARROLL *      CLOUDY    28  27  93 SE13      30.26F WCI  18
CHEROKEE *     LGT SNOW  27  26  96 E8        30.24F WCI  19
DENISON *      CLOUDY    28  27  93 SE7       30.25F WCI  21
LE MARS *      CLOUDY    27  25  93 E12       30.22F FOG     WCI  16
ORANGE CITY *  CLOUDY    27  27 100 SE8       30.22F FOG     WCI  18
SHELDON *      CLOUDY    27  25  93 SE17      30.23F FOG     WCI  14
SIOUX CITY     CLOUDY    27  26  96 SE12      30.22F FOG     WCI  17
SPENCER        LGT SNOW  27  24  89 E15       30.26F FOG     WCI  15
STORM LAKE *   CLOUDY    27  25  93 SE10      30.22F WCI  17
$$

IAZ055>058-069>071-079>083-090>094-222300-
   SOUTHWEST IOWA

CITY           SKY/WX    TMP DP  RH WIND       PRES   REMARKS
ATLANTIC *     CLOUDY    30  30 100 SE8       30.23F WCI  23
AUDUBON *      CLOUDY    30  27  86 SE10      30.25F WCI  21
CLARINDA *     CLOUDY    32  32 100 SE10      30.26F WCI  24
COUNCIL BLFS * CLOUDY    28  30 100 SE9       30.20F WCI  20
CRESTON *      CLOUDY    30  30 100 SE16      30.24F WCI  19
HARLAN  *      CLOUDY    30  30 100 SE12      30.26F WCI  21
LAMONI         CLOUDY    31  29  92 SE6       30.26F FOG     WCI  25
RED OAK *      CLOUDY    32  30  93 SE10      30.23F WCI  24
SHENANDOAH *   CLOUDY    32  30  93 SE12      30.24F WCI  23
$$

IAZ047>049-059>061-072>074-084-222300-
   CENTRAL IOWA

CITY           SKY/WX    TMP DP  RH WIND       PRES   REMARKS
AMES           CLOUDY    31  29  92 SE8       30.30F FOG     WCI  23
ANKENY *       CLOUDY    32  30  93 SE8       30.32F FOG     WCI  25
BOONE *        CLOUDY    30  30 100 MISG      30.28F FOG
CHARITON *     CLOUDY    32  32 100 E8        30.28F WCI  25
DES MOINES     FRZ DRZL  32  30  92 E12       30.29F FOG     WCI  23
GRINNELL*      LGT RAIN  32  31  96 E9        30.34F VSB 1   WCI  24
KNOXVILLE *    CLOUDY    32  32 100 SE8G14    30.29F FOG     WCI  25
MARSHALLTOWN   CLOUDY    32  32 100 E12       30.32F FOG     WCI  23
NEWTON *       FOG       32  32 100 E9        30.32F VSB 1   WCI  24
PELLA *        CLOUDY    32  32  99 SE10      30.33F FOG     WCI  24
PERRY *        CLOUDY    31  30  97 E12       30.28F WCI  22
$$

IAZ004>006-015-016-023>025-035-036-222300-
   NORTH CENTRAL IOWA

CITY           SKY/WX    TMP DP  RH WIND       PRES   REMARKS
ALGONA *       SNOW      28 N/A N/A E14G21    30.28F VSB 1/2 WCI  17
CLARION *      FOG       28  28 100 SE12      30.30F VSB 3/4 WCI  18
ESTHERVILLE    LGT SNOW  26  24  92 E13       30.27F VSB 1   WCI  15
FORT DODGE *   MIX PCPN  30  27  88 E12       30.27F WCI  20
MASON CITY     LGT SNOW  27  23  85 E14       30.33F VSB 3/4 WCI  16
FOREST CITY *  LGT SNOW  30  27  86 SE10G16   30.31F WCI  21
WEBSTER CITY * PTSUNNY   30  30 100 E13       30.26F FOG     WCI  20
IOWA FALLS *   MIX PCPN  32  31  96 E10       30.32F WCI  24
$$

IAZ007>011-017>019-026>030-037>042-050>054-066-222300-
   NORTHEAST IOWA

CITY           SKY/WX    TMP DP  RH WIND       PRES   REMARKS
CEDAR RAPIDS   MIX PCPN  33  32  96 E9        30.36S VSB 1   WCI  25
CHARLES CITY * CLOUDY    32  21  64 E13       30.36S WCI  22
CLINTON *      CLOUDY    35  33  92 E9        30.40R FOG     WCI  28
DECORAH *      CLOUDY    32  18  55 E8G16     30.37F WCI  25
DUBUQUE        CLOUDY    32  28  85 E12       30.38R FOG     WCI  23
MONTICELLO *   FAIR      32  32 100 E8        30.39R FOG     WCI  25
OELWEIN *      CLOUDY    32  32 100 E15       30.36S FOG     WCI  22
WATERLOO       CLOUDY    31  29  92 SE15      30.35F FOG     WCI  20
$$

IAZ064-065-067-068-078-222300-
   EAST CENTRAL IOWA

CITY           SKY/WX    TMP DP  RH WIND       PRES   REMARKS
DAVENPORT      CLOUDY    37  33  85 E7        30.40R FOG     WCI  32
IOWA CITY      CLOUDY    35  32  88 E8        30.39S FOG     WCI  29
MT. PLEASANT * CLOUDY    36  36 100 SE6       30.36F FOG     WCI  31
MUSCATINE *    CLOUDY    37  36  93 E8        30.38F FOG     WCI  31
QUAD CITIES    CLOUDY    38  37  97 E8        30.37F FOG     WCI  32
$$

IAZ062-063-075>077-085>089-095>099-222300-
   SOUTHEAST IOWA

CITY           SKY/WX    TMP DP  RH WIND       PRES   REMARKS
BURLINGTON     FOG       37  36  96 E7        30.35F VSB 1   WCI  32
FAIRFIELD *    CLOUDY    36  34  93 SE8       30.34F FOG     WCI  29
FORT MADISON * FOG       37  37 100 CALM      30.37S VSB 1
KEOKUK *       FOG       37  36  93 NE5       30.35F VSB 1   WCI  34
OSKALOOSA *    CLOUDY    32  32 100 E9        30.32F FOG     WCI  24
OTTUMWA        CLOUDY    34  32  92 E9        30.31F FOG     WCI  27
WASHINGTON *   FOG       36  36 100 E5        30.37F VSB 1/2 WCI  32
$$

ABBREVIATIONS USED IN REMARKS
   TC - TEMPERATURES IN CELSIUS
  WCI - WIND CHILL INDEX
   HX - HEAT INDEX
  VSB - VISIBILITY
$$




USA.gov is the U.S. government's official web portal to all federal, state and local government web resources and services.